Regional Weather Roundup
Issued by NWS Bismarck, ND

Home | Current Version | Previous Version | Text Only | Print | Product List | Glossary On
Versions: 1 2 3 4 5 6 7 8 9 10 11 12 13 14 15 16 17 18 19 20 21 22 23 24 25 26 27 28 29 30 31 32 33 34 35 36 37 38 39 40 41 42 43 44 45 46 47 48 49 50
000
ASUS43 KBIS 202310
RWRBIS

NWR BROADCAST TEXT
NATIONAL WEATHER SERVICE BISMARCK ND
600 PM CDT SUN MAY 20 2018

NOTE: "FAIR" INDICATES FEW OR NO CLOUDS BELOW 12,000 FEET WITH NO
SIGNIFICANT WEATHER AND/OR OBSTRUCTIONS TO VISIBILITY.


CITY           SKY/WX    TMP DP  RH WIND       PRES   REMARKS
WILLISTON      SUNNY     73  34  23 SE14G22   30.07F
MINOT          SUNNY     75  28  17 SE13      30.10F
MINOT AFB      SUNNY     74  29  19 S12G18    30.09F
BISMARCK       SUNNY     70  34  26 S14       30.14F
DICKINSON      SUNNY     68  31  25 S21G28    30.09F
GARRISON         N/A     70  29  21 S16       30.12F
HETTINGER ARPT MOSUNNY   63  33  32 SE15      30.13F
JAMESTOWN      SUNNY     69  36  29 S6        30.15F
CARRINGTON     FAIR      72  30  21 SE7       30.17F
HAZEN          FAIR      70  32  24 S15       30.14F
LINTON         FAIR     N/A N/A N/A SE10G17   30.16F
MANDAN         FAIR      68  36  30 S12       30.15F
OAKES            N/A     70  34  26 E12G18    30.14F
STANLEY          N/A     70  27  19 S21       30.12F HAZE
TIOGA          FAIR      70  27  19 S20       30.10F
WATFORD CITY   FAIR      72  30  21 SE15G24   30.08S
$$

CITY           SKY/WX    TMP DP  RH WIND       PRES   REMARKS
GRAND FORKS    FAIR      74  34  23 E5        30.13F
GRAND FORKS AF FAIR      74  36  25 S7        30.14F
DEVILS LAKE    FAIR      71  33  24 SW6       30.15F
FARGO          FAIR      71  35  26 E5        30.14F
CANDO          FAIR      73  34  23 S13       30.15F
CAVALIER         N/A     75  30  19 S6G13     30.11F
GRAFTON        FAIR      73  36  25 S5        30.14F
GWINNER          N/A     73  25  16 NE14      30.14F
LANGDON        FAIR      73  30  20 SW8       30.14F
ROLLA          FAIR      72  28  20 SW8       30.13F
WALHALLA       FAIR      75  30  19 VRB7      30.11F
$$

CITY           SKY/WX    TMP DP  RH WIND       PRES   REMARKS
ABERDEEN       MOSUNNY   72  29  20 E13G18    30.13F
MOBRIDGE       MOSUNNY   70  38  31 E9        30.11F
BUFFALO          N/A     64  32  30 S22G28    30.04F
RAPID CITY     CLOUDY    58  39  49 SE12      30.12F
GLASGOW        SUNNY     73  37  27 SE24      29.97F
SIDNEY         SUNNY     71  38  29 S17       30.05F
WOLF POINT     SUNNY     73  36  25 S13G21    30.00F
GLENDIVE       SUNNY     69  39  33 S20       30.05F
MILES CITY     SUNNY     71  45  39 SE17G24   29.99F
BAKER          SUNNY     65  34  31 S24       30.09F
$$

CITY           SKY/WX    TMP DP  RH WIND       PRES   REMARKS
BILLINGS       MOSUNNY   70  50  49 E12       29.95F
GREAT FALLS    MOSUNNY   77  41  27 CALM      29.88F
REGINA         MOSUNNY   75  23  14 S26       30.00F
ESTEVAN        MOSUNNY   73  30  20 SE17G24   30.07F
$$




USA.gov is the U.S. government's official web portal to all federal, state and local government web resources and services.